Theta_e
355 349 352 352 353 349 342 337 318 325 323 316 317 320 319 330 333 330 330 333 328 335 337 334 333 332 329 327 328 333 334 327 330 320 318 335 350 352 354 356 358 357 357 359 361 362 365 364 366 366 366 367 366 366 366 366 366 366 366 366 366 366 365 364 364 363 362 363 364 363 363 362 362 361 361 362 361 360 360 361 360 361 361 360 360 360 361 361 360 361 361 361 360 359 360 360 359
354 352 352 352 348 343 331 340 321 319 320 317 318 323 326 331 329 327 327 332 332 335 335 333 335 337 337 335 336 334 332 335 336 333 337 345 350 351 355 357 357 356 357 359 361 361 363 366 365 365 365 366 366 366 366 366 366 366 366 366 365 364 364 364 364 364 363 362 362 363 362 361 362 361 360 362 361 361 361 361 361 361 359 359 360 360 360 361 360 360 360 360 359 359 358 358 360
349 352 349 351 345 340 339 335 316 317 314 311 318 323 331 327 327 331 333 334 336 336 335 336 338 337 335 334 330 333 326 338 337 338 339 347 342 347 354 357 358 358 358 360 360 361 363 365 364 365 365 365 365 366 366 366 367 366 365 364 364 364 364 364 364 364 364 363 362 362 362 362 362 362 362 362 361 361 362 361 361 361 360 360 361 362 360 360 360 360 360 359 360 359 358 358 357
352 352 345 343 332 340 327 325 322 317 313 315 317 325 328 327 329 333 336 338 338 335 336 334 333 339 334 327 332 336 333 333 337 338 337 342 344 349 354 357 360 358 359 360 361 361 364 365 365 366 365 365 366 366 366 366 366 365 365 364 364 365 365 365 365 365 363 363 363 363 362 363 363 362 362 362 362 361 362 362 361 361 360 360 360 362 361 360 360 360 361 360 361 360 358 358 356
350 350 353 342 337 325 328 324 323 321 314 318 316 325 329 331 333 333 335 339 337 335 334 335 334 340 341 336 337 332 332 338 338 342 341 346 352 352 355 358 357 357 358 360 360 361 363 366 366 366 365 365 366 366 366 366 366 365 365 365 365 364 364 365 364 364 363 363 363 363 363 363 363 363 363 362 362 363 362 361 362 362 361 361 363 363 362 361 360 360 359 361 362 360 359 358 359
349 346 348 345 330 341 332 322 320 318 322 325 321 325 331 334 334 334 335 338 339 337 336 334 333 334 333 335 338 334 339 331 339 341 343 345 351 354 356 358 356 356 358 360 360 362 364 366 365 365 365 365 365 366 366 366 366 365 365 364 364 364 364 363 362 364 363 363 363 362 363 362 363 363 362 361 362 363 363 363 362 362 362 361 362 362 362 362 361 360 360 361 361 359 360 360 360
340 341 339 339 336 338 323 320 318 320 324 328 326 328 332 334 335 335 334 335 338 337 339 335 338 336 331 336 339 341 346 343 341 341 346 349 352 354 356 356 357 356 359 359 360 362 363 365 365 365 365 366 366 366 366 366 364 365 363 363 363 363 363 363 362 363 363 363 363 363 362 363 363 363 363 362 361 362 362 362 360 361 361 362 363 361 360 360 360 360 360 360 361 360 358 357 359
347 341 332 328 326 329 321 320 320 324 325 331 332 330 333 334 336 335 333 333 331 332 335 338 338 336 331 340 332 342 345 345 345 347 350 351 352 354 355 356 355 355 357 359 361 361 365 365 365 365 365 366 366 365 365 366 363 364 364 364 363 363 363 363 362 363 364 363 363 363 362 362 362 362 361 363 363 363 362 362 363 362 361 361 360 361 361 360 360 361 360 359 360 359 357 357 359
342 340 343 332 323 326 321 319 321 327 326 331 332 338 337 335 336 334 332 334 334 336 335 336 337 331 332 334 334 341 344 346 348 351 351 351 351 355 354 355 355 355 357 357 359 361 364 365 365 364 365 366 366 365 366 364 365 364 363 362 363 363 363 363 363 363 363 364 364 363 362 363 362 363 363 363 363 363 363 363 363 362 362 361 361 361 360 361 360 360 360 360 360 360 360 359 356
340 339 329 328 325 318 318 320 319 324 327 333 333 336 336 335 335 336 333 332 333 335 336 338 338 334 334 330 333 338 341 347 349 349 350 352 352 354 354 355 356 355 356 357 359 360 362 365 364 364 365 365 365 365 364 364 365 365 365 363 364 365 364 363 363 363 363 363 363 363 363 363 363 362 362 362 361 363 363 363 362 362 362 362 361 361 361 362 361 360 360 361 360 361 359 359 358
331 338 339 326 321 316 316 318 322 325 326 333 335 338 338 337 335 334 334 334 336 334 335 338 334 333 334 333 336 346 347 348 346 344 349 351 353 353 353 356 356 357 356 358 358 360 362 364 365 364 365 365 364 365 363 364 363 366 365 363 364 364 363 363 362 362 363 364 364 363 362 361 363 362 363 363 362 362 362 362 362 361 361 361 360 360 361 362 361 360 360 358 359 360 360 359 358
330 331 333 321 319 318 319 320 322 325 328 332 332 338 339 335 336 332 333 331 334 334 333 337 333 338 332 332 333 342 345 345 346 347 350 351 351 352 353 355 356 356 357 358 358 359 362 364 365 365 365 365 365 365 364 364 365 365 365 365 364 364 364 363 363 363 363 364 363 362 362 362 362 362 362 362 362 362 361 361 361 361 361 361 361 360 360 361 360 360 359 358 357 361 359 357 358
332 334 328 322 319 321 322 321 322 324 326 328 331 338 340 336 333 334 334 334 334 333 332 338 339 338 328 331 339 342 341 344 348 349 351 351 351 352 353 354 355 356 357 359 358 359 361 363 363 365 365 365 365 365 364 363 364 363 365 365 364 364 364 364 363 362 364 364 363 362 362 362 362 363 363 363 363 361 361 361 362 360 362 361 361 362 361 360 361 360 358 359 359 358 359 358 356
335 336 330 320 325 322 322 322 323 323 323 330 336 339 338 335 336 336 336 332 333 332 337 341 339 338 333 334 335 335 339 346 348 350 351 351 351 352 352 353 354 355 357 359 359 360 359 362 363 362 365 366 366 365 366 365 364 364 364 364 364 363 364 364 363 363 362 363 364 363 363 363 363 363 364 364 364 363 363 362 362 363 362 361 359 361 362 362 361 360 358 357 357 358 357 356 354
335 339 331 325 321 322 324 321 321 322 322 331 336 338 338 341 341 338 337 333 333 340 341 343 341 334 328 331 329 334 340 346 349 350 350 350 351 351 352 353 354 355 356 357 358 359 358 360 360 363 365 365 366 366 366 366 364 364 364 364 363 364 364 363 362 362 362 363 363 363 364 364 363 363 364 364 364 364 363 362 361 363 362 363 363 360 361 358 360 360 360 359 359 356 355 357 359
339 336 330 321 319 319 322 323 324 322 322 332 337 339 338 337 341 337 339 341 338 341 340 334 341 332 336 335 336 339 344 347 348 349 349 349 351 351 352 353 353 355 357 358 357 358 359 359 361 361 364 364 365 364 365 366 364 364 364 364 364 363 363 363 362 362 362 363 363 363 363 364 364 364 364 364 364 364 363 363 363 361 361 362 361 361 361 361 360 360 358 359 358 357 358 358 357
341 337 324 322 319 321 322 323 324 318 326 333 340 337 332 332 339 340 344 345 336 335 337 339 336 341 337 339 342 344 346 348 348 348 348 348 349 347 350 351 352 353 355 356 358 358 359 360 361 361 363 364 363 364 364 365 364 364 364 363 363 363 363 363 362 362 362 363 363 365 364 365 366 366 364 365 363 364 363 363 363 362 362 361 362 360 360 360 359 359 359 358 358 356 359 359 359
336 326 323 320 323 321 325 324 325 325 327 333 335 336 335 330 335 337 342 338 337 336 336 339 341 340 343 344 345 346 347 346 346 345 344 344 346 343 345 347 348 349 353 353 357 359 359 359 361 362 362 364 364 364 363 364 365 364 365 365 365 365 364 363 364 364 363 365 364 365 366 365 364 365 366 363 364 363 363 363 362 361 361 361 361 361 360 359 360 360 360 360 358 359 360 364 363
330 326 324 321 325 327 330 329 329 326 326 334 336 337 335 333 336 338 334 333 334 333 335 337 336 340 343 344 344 344 344 344 344 343 343 342 343 342 343 345 347 349 350 353 355 357 359 360 360 359 361 364 364 365 364 364 366 366 365 365 365 364 365 365 365 365 365 366 365 365 365 365 364 365 364 363 362 362 363 363 362 361 361 362 361 361 361 361 362 362 361 361 361 361 365 365 364
333 328 322 324 331 330 332 333 332 332 331 333 335 335 335 336 336 340 334 333 334 332 332 333 334 334 337 340 342 342 343 342 344 344 342 343 343 343 344 344 345 348 350 352 354 358 359 358 359 360 360 363 362 362 363 364 366 367 364 365 365 365 365 365 365 365 365 365 364 365 363 366 364 365 364 364 362 361 362 363 362 363 362 362 362 362 362 363 363 362 363 363 360 362 366 364 364
331 327 324 328 331 328 331 333 332 332 333 333 335 336 333 335 337 336 335 332 331 334 337 335 334 335 336 339 340 341 341 341 342 343 342 343 343 344 345 346 345 349 351 353 355 355 358 359 359 359 361 362 362 361 363 362 365 364 364 364 365 364 365 365 364 365 366 366 366 364 362 363 361 362 362 362 362 363 361 361 364 366 367 367 363 364 363 363 363 366 366 365 367 366 364 365 366
332 327 331 331 332 327 333 333 332 333 334 334 334 331 332 338 336 335 335 331 330 334 338 339 339 339 338 338 340 341 340 340 340 342 343 342 341 343 345 347 349 351 352 351 353 356 357 359 359 358 359 362 361 361 361 363 365 363 363 364 364 364 364 364 363 364 364 366 364 362 362 362 361 362 362 362 362 364 361 361 359 362 362 365 366 366 366 366 366 364 366 364 364 366 365 366 366
322 329 330 332 333 330 335 334 334 332 331 332 331 334 336 334 333 336 336 333 336 341 342 341 341 341 341 341 340 339 338 339 340 340 343 342 343 343 345 346 347 347 350 351 354 355 357 358 360 359 357 360 361 362 362 363 362 363 363 363 363 363 364 364 362 363 364 366 365 364 358 359 360 360 361 362 361 364 363 361 360 361 361 363 366 365 365 366 364 362 364 364 364 364 364 365 364
327 324 328 329 332 330 334 333 330 328 329 329 334 337 333 333 329 336 334 337 339 342 342 342 343 343 342 340 340 338 339 339 339 342 344 343 344 343 344 346 347 349 351 350 353 355 357 356 360 359 358 359 360 361 361 360 363 362 361 363 364 363 363 362 361 362 366 366 366 365 364 361 360 359 361 361 363 364 363 365 365 361 359 362 366 367 364 364 363 364 363 363 363 363 360 361 362
324 323 327 328 328 328 329 329 328 328 327 331 334 331 332 334 333 335 333 337 340 341 343 342 343 342 341 340 340 340 340 340 341 342 344 345 345 346 347 347 348 349 347 350 351 353 356 357 359 358 357 358 359 359 358 359 361 362 362 361 361 363 363 363 363 365 364 364 365 367 366 360 361 361 361 361 363 364 364 364 363 363 363 363 365 365 365 364 362 363 362 362 364 363 362 360 361
325 325 325 325 325 326 326 325 326 326 327 332 331 330 333 335 335 332 335 337 341 342 341 341 342 340 340 340 340 340 339 340 341 341 342 344 345 345 346 347 348 347 349 350 352 353 355 357 357 357 357 357 358 357 358 359 360 360 361 362 361 363 362 363 364 362 364 364 363 366 364 363 362 360 361 362 362 363 364 365 365 364 363 364 364 365 366 364 364 362 363 363 363 362 361 361 361
322 323 325 324 325 325 327 325 326 326 325 330 327 328 330 335 332 326 336 339 341 341 340 341 340 339 340 340 340 340 340 340 341 343 343 344 345 345 345 346 347 348 350 350 352 353 355 356 356 358 357 359 358 357 358 359 360 359 361 361 361 361 362 363 363 362 362 363 365 368 368 367 363 362 363 363 364 364 365 365 364 365 363 365 366 366 367 365 364 363 363 362 363 364 363 361 361
320 320 320 321 322 323 324 323 323 324 323 328 328 325 330 332 331 328 334 340 341 339 339 339 339 340 340 341 341 341 341 342 343 343 341 342 343 345 345 346 346 347 348 350 351 354 354 355 355 358 357 358 359 357 359 359 358 358 360 360 359 361 362 361 360 362 363 364 367 367 367 366 366 365 366 366 365 364 364 363 363 364 362 364 366 365 365 365 364 365 366 366 366 365 363 364 364
318 319 314 317 318 317 320 319 321 323 322 327 328 324 323 325 325 332 336 340 340 339 338 338 339 339 340 340 340 341 341 342 343 342 343 344 345 346 346 348 348 347 350 351 353 353 353 355 355 357 358 358 357 357 358 360 360 358 359 359 360 360 360 361 361 362 364 366 368 367 367 368 368 366 368 368 367 365 365 366 363 365 365 368 367 368 368 366 362 361 362 364 364 364 362 363 365
318 316 315 314 315 315 321 322 322 322 323 326 327 312 318 323 328 332 337 339 339 337 337 338 338 339 339 340 339 340 341 342 342 342 345 345 347 346 346 348 350 350 350 352 352 352 354 355 355 356 356 356 356 357 359 358 360 360 360 359 360 359 361 360 361 363 365 365 365 367 366 367 367 369 369 369 367 365 366 366 365 364 367 368 369 370 364 358 359 358 357 360 359 362 361 362 361
309 312 314 310 310 312 319 321 322 319 325 326 326 312 316 323 328 332 337 339 337 335 337 337 338 338 339 339 339 339 340 342 342 343 345 347 348 348 348 349 350 351 351 352 351 353 354 355 355 354 357 356 357 356 358 358 360 360 360 359 359 359 361 361 360 362 363 362 363 362 366 365 367 368 369 369 368 366 364 364 365 365 368 369 367 369 366 358 357 356 357 358 359 360 359 361 361
310 305 303 309 308 312 317 319 321 318 323 327 323 314 316 321 326 333 337 338 337 336 336 337 337 338 338 339 339 338 339 342 343 344 345 346 348 348 348 348 350 350 351 351 352 353 353 355 357 354 356 355 356 356 357 359 359 360 360 360 360 360 360 361 362 360 360 361 361 361 365 365 366 368 369 370 367 366 364 364 365 369 370 368 368 369 367 358 358 358 358 358 358 357 361 358 357
308 304 305 305 308 310 313 318 320 322 323 325 322 315 319 321 327 333 337 337 337 336 336 337 337 337 338 338 339 339 339 340 343 343 344 346 347 348 349 350 350 350 351 352 353 354 354 353 356 355 354 355 355 355 357 358 360 360 360 359 358 360 359 359 360 361 360 360 361 358 364 365 366 367 369 370 368 367 366 366 366 368 369 367 369 368 364 364 357 355 358 359 359 358 357 352 352
304 306 304 307 307 309 309 315 317 320 320 319 323 317 318 322 328 333 336 337 336 335 336 337 337 337 338 339 338 338 338 339 340 342 344 346 347 348 349 351 351 351 351 352 353 353 353 354 354 354 356 355 356 356 356 357 359 359 358 358 359 357 356 357 358 359 359 357 360 359 363 365 366 367 369 369 369 368 367 367 367 369 368 369 368 366 365 365 366 360 355 360 364 365 358 354 350
301 303 303 304 308 310 310 311 315 316 318 317 320 319 318 322 329 333 335 336 335 335 336 337 337 337 338 338 338 338 338 338 340 344 345 346 347 348 349 350 351 351 351 351 352 354 355 355 355 356 356 356 356 356 358 357 359 359 357 357 356 357 357 356 356 356 356 359 357 361 365 365 366 368 368 369 369 367 367 367 367 368 368 368 368 365 364 365 367 364 363 364 367 364 357 354 352
304 306 305 306 305 307 308 313 315 317 316 315 317 316 318 321 326 332 334 336 334 335 337 337 337 338 338 338 338 338 338 339 342 345 346 347 347 348 348 350 351 351 351 351 352 353 354 355 355 355 356 356 356 356 356 354 355 354 352 353 353 354 355 355 357 355 356 356 357 360 364 365 367 368 369 370 369 369 367 367 367 368 367 368 367 363 362 363 364 362 363 361 363 357 354 354 355
306 307 306 306 306 309 310 310 313 317 315 316 317 318 318 320 324 330 333 335 335 335 336 336 337 337 337 337 337 338 339 339 343 345 347 347 348 348 349 350 351 351 352 351 351 352 354 353 353 352 355 356 355 353 353 353 351 352 352 351 349 351 354 355 354 355 354 354 358 360 363 363 367 368 368 369 368 369 369 368 368 367 368 367 367 365 365 366 368 363 362 364 361 357 352 352 352
305 305 306 306 307 306 311 310 312 316 312 312 316 316 317 319 323 329 333 333 332 333 334 336 336 337 337 338 337 338 340 342 343 344 346 347 347 348 349 349 351 349 351 351 350 351 353 353 354 353 354 356 355 355 354 354 355 353 352 352 350 351 353 352 352 354 352 354 360 362 363 364 367 368 368 370 370 369 370 367 368 367 368 368 369 369 368 366 368 364 366 362 363 357 351 347 350
304 304 304 304 306 308 310 310 311 313 313 311 314 313 314 318 321 328 331 332 334 335 335 336 337 337 337 338 339 339 340 340 342 343 345 346 347 348 348 349 350 350 351 351 351 351 352 352 354 356 355 355 355 356 357 355 357 357 355 354 353 351 355 356 354 355 356 354 357 361 363 365 366 367 368 369 369 369 368 367 368 369 368 369 368 368 368 367 368 366 365 361 359 359 353 351 351
301 303 302 302 305 305 304 310 310 312 311 311 313 311 313 317 322 326 331 332 334 336 336 337 338 337 337 338 339 339 339 340 340 342 342 344 346 348 348 349 350 350 351 351 351 351 351 353 354 355 355 356 356 357 357 359 359 360 359 358 356 355 354 356 357 357 356 355 354 360 364 366 366 366 367 367 368 368 369 368 368 367 370 370 368 367 367 366 367 367 365 364 361 353 348 347 350
301 301 303 304 304 305 305 306 307 308 310 312 311 309 310 314 314 319 328 333 333 335 335 337 339 340 341 341 341 341 340 341 341 342 343 344 345 346 347 348 350 349 350 351 351 351 350 352 354 355 356 356 357 357 357 358 358 358 357 358 357 355 356 354 353 352 354 355 354 358 361 366 366 365 367 368 367 368 369 368 367 368 369 370 369 367 367 365 367 367 367 364 362 354 347 346 351
298 302 303 305 306 305 306 307 306 306 307 309 309 304 306 313 313 314 323 329 330 334 333 333 336 337 339 338 339 341 341 343 342 342 343 344 345 346 348 348 348 349 350 351 353 352 352 353 355 355 356 356 356 358 358 357 355 354 353 350 349 350 349 350 349 350 351 352 349 350 362 364 364 366 367 367 367 367 368 368 368 367 367 368 368 365 366 368 368 366 366 365 362 361 355 348 344
297 299 304 305 306 307 306 305 305 302 301 307 309 303 302 312 311 314 322 326 328 332 332 333 334 336 337 337 339 339 340 341 343 344 344 344 345 346 347 348 349 349 351 353 353 353 354 354 355 356 356 356 357 358 358 357 355 355 354 352 351 351 350 353 356 355 354 355 355 357 362 364 366 364 365 367 367 368 368 368 368 367 366 366 367 367 365 364 363 366 367 365 365 363 359 351 349
296 305 306 305 305 305 306 306 305 304 307 307 307 306 302 303 309 316 320 323 325 328 330 332 333 335 335 337 338 340 340 341 341 342 344 345 346 346 346 348 349 349 352 353 353 353 354 355 356 355 356 356 357 357 357 356 355 354 354 354 353 353 352 354 357 358 359 361 358 357 360 363 366 366 365 368 368 368 369 368 368 367 366 365 366 366 363 363 365 367 368 368 369 366 361 354 351
301 307 308 306 306 307 307 306 306 305 303 301 305 307 301 301 309 314 319 317 322 326 329 331 333 335 335 336 337 339 340 341 341 341 342 344 345 346 348 348 350 351 351 352 352 353 354 356 356 357 356 357 357 358 357 357 357 356 355 354 354 355 355 356 358 359 358 360 358 360 362 363 366 368 367 367 369 368 368 368 368 368 366 366 367 365 365 364 366 366 367 366 365 366 363 360 358
304 309 309 308 309 309 308 306 306 306 302 298 303 305 299 301 307 308 318 316 318 323 328 331 333 334 335 335 337 338 340 341 342 342 343 344 346 347 348 350 350 350 352 354 353 354 354 355 355 356 356 356 357 357 357 357 357 357 355 355 354 354 356 356 356 356 358 360 358 360 362 363 363 365 367 369 369 369 369 369 367 367 367 365 365 363 365 366 367 367 367 366 367 366 364 362 359
308 308 307 307 306 306 307 307 306 303 297 300 304 305 302 297 305 308 310 311 316 321 327 331 334 335 336 337 338 338 338 339 340 342 343 345 346 347 348 348 350 351 352 353 352 353 353 354 355 354 355 356 357 357 357 357 357 357 356 356 355 355 356 356 355 356 357 359 358 359 361 362 364 364 365 368 368 368 369 369 366 366 367 367 367 366 366 363 364 366 366 368 367 365 363 364 362
307 304 303 303 302 304 304 302 304 297 295 302 305 305 304 295 302 309 314 318 318 320 321 327 330 333 335 337 337 338 339 339 340 341 341 343 345 346 347 347 348 350 351 351 352 352 353 353 354 354 355 356 356 356 357 356 356 356 357 357 356 356 357 355 354 354 356 356 357 358 361 362 364 364 366 365 366 365 368 368 369 368 367 367 367 368 366 365 364 366 367 367 366 367 366 365 363
304 303 302 297 296 297 293 297 293 294 294 302 305 305 300 300 305 311 312 313 315 320 320 324 328 331 335 336 338 338 339 340 340 340 341 342 342 344 345 347 349 350 350 351 351 351 352 353 354 353 354 356 356 357 356 356 356 356 356 357 357 358 358 357 356 356 358 357 357 358 360 360 362 362 364 363 365 367 368 368 368 367 367 368 368 369 368 369 368 366 368 367 366 366 365 365 362
302 300 299 295 292 291 288 292 295 295 299 302 302 305 299 305 307 311 310 313 315 317 323 324 327 331 334 336 338 338 339 340 340 340 341 342 343 344 345 346 348 349 350 351 351 352 353 353 354 353 354 356 357 357 356 356 356 356 358 357 357 358 357 358 357 356 358 358 359 358 358 357 360 361 362 364 364 366 367 369 370 369 370 370 369 369 369 370 369 366 367 366 365 367 367 366 365
303 304 301 298 296 292 288 292 289 291 294 299 303 298 297 298 304 312 313 314 316 317 320 324 328 330 335 336 338 338 339 340 340 341 341 341 343 344 344 346 348 349 349 350 351 352 353 353 354 354 355 356 356 356 356 356 356 357 358 358 358 358 357 357 357 357 358 358 358 358 360 359 360 361 363 366 368 368 368 369 369 369 369 370 370 369 368 369 369 367 366 366 366 367 366 364 364
306 306 306 300 298 303 294 297 295 294 294 294 297 297 305 303 312 311 315 316 316 317 318 321 325 329 331 332 334 336 337 338 339 340 341 342 344 345 345 346 348 348 350 350 351 353 353 354 355 355 355 356 356 356 357 357 357 358 358 358 358 358 358 358 358 359 360 360 360 359 361 362 362 363 366 367 367 367 368 368 369 368 369 368 369 369 369 368 369 366 364 364 364 366 364 364 364
303 304 299 301 308 304 298 299 302 298 296 293 301 299 302 307 308 311 312 311 313 315 315 317 320 325 330 329 331 334 336 338 339 339 340 343 343 345 345 346 346 348 349 349 352 354 354 354 354 355 356 356 356 357 357 357 358 358 358 358 358 357 357 356 356 357 356 359 360 360 360 360 363 365 365 366 366 367 368 368 367 366 368 369 368 369 368 369 370 367 364 364 363 365 365 364 363
305 298 302 308 310 307 301 292 297 294 291 295 297 295 297 299 296 309 310 309 311 313 313 314 318 324 327 328 331 333 335 338 339 341 342 343 344 344 344 345 346 347 348 350 353 354 355 355 355 355 355 355 356 357 356 357 358 357 358 358 358 358 356 356 356 356 357 358 359 360 360 360 360 361 363 363 365 365 366 367 367 368 368 368 368 367 368 369 369 366 365 364 364 366 364 364 364
305 303 311 301 296 295 301 298 290 290 289 292 296 297 297 300 300 306 307 309 310 313 315 314 315 321 324 327 330 334 336 337 339 339 341 342 342 343 344 344 346 347 350 350 352 352 354 355 355 354 354 355 356 356 357 358 358 357 357 358 358 358 357 357 357 359 359 358 356 357 358 359 360 362 363 364 364 363 364 365 366 366 367 367 368 367 369 368 367 364 363 362 364 364 362 362 365
309 310 306 309 305 300 297 298 299 298 292 292 293 296 294 302 303 305 307 311 312 313 315 314 316 320 323 326 329 332 334 336 338 339 340 341 342 343 343 344 344 346 348 349 350 351 351 352 354 354 355 356 357 356 357 357 358 358 357 359 359 359 359 358 358 358 357 356 357 356 357 357 359 360 360 362 362 362 363 362 363 363 363 364 366 366 367 367 366 364 363 362 363 363 362 363 363
302 302 302 304 304 307 305 304 299 296 294 293 293 291 297 304 309 307 308 311 315 315 316 320 319 320 323 327 329 332 334 335 337 338 339 340 341 342 343 344 345 346 348 349 348 349 350 351 352 353 354 354 354 355 356 358 358 358 359 358 358 359 358 358 358 359 358 357 358 358 357 358 360 359 360 360 361 362 363 363 362 363 362 364 366 366 367 368 366 364 363 364 364 363 362 362 364
299 301 301 303 301 298 295 294 303 300 297 293 293 292 300 306 311 310 309 311 315 317 318 319 320 320 324 326 330 334 334 337 337 338 339 340 342 342 343 344 345 345 346 346 347 348 349 350 351 352 353 353 353 354 357 357 358 358 358 359 358 358 358 358 357 357 357 357 358 358 359 359 358 359 360 358 360 361 363 362 361 363 364 364 367 368 366 367 365 364 363 362 362 362 362 361 362
Wind_Speed
8 8 8 7 6 5 5 2 3 2 2 2 3 1 2 2 3 4 5 7 6 4 5 11 11 12 5 4 5 6 4 7 4 2 4 5 10 13 12 12 13 13 12 10 9 10 12 11 12 14 15 15 15 15 16 16 16 16 16 16 17 17 16 16 16 16 16 15 14 15 14 14 14 14 13 13 12 12 12 10 12 11 10 9 10 11 11 11 11 11 12 12 11 12 12 12 10
8 7 7 7 6 6 3 3 1 1 2 2 0 2 1 3 4 4 7 6 5 7 10 12 10 5 5 11 9 9 10 9 4 4 5 11 15 12 12 13 14 15 12 10 10 10 11 12 11 13 14 15 15 15 15 16 16 16 16 16 16 16 16 16 15 15 15 15 14 14 14 14 14 14 14 13 14 13 12 11 11 11 10 9 9 10 10 10 11 11 10 12 13 13 12 9 10
9 7 7 6 4 3 0 2 2 1 2 1 1 1 2 3 4 5 6 6 9 11 13 12 10 7 8 9 7 2 5 5 8 9 10 15 16 10 14 13 12 13 12 9 10 10 10 11 10 12 14 15 15 15 15 15 15 15 16 16 16 16 15 15 15 15 15 14 14 14 13 14 12 14 13 13 13 12 12 10 10 12 10 9 8 9 9 10 10 11 11 11 14 12 11 11 11
8 6 7 7 4 2 3 3 2 1 1 1 2 2 3 3 6 7 6 9 11 13 13 13 7 3 4 7 5 7 7 5 6 14 11 14 11 16 15 14 13 11 10 8 9 10 10 12 10 12 14 15 15 14 15 15 15 15 15 15 15 15 15 15 15 15 14 14 14 14 15 14 13 13 13 13 13 12 12 10 9 12 10 8 8 9 8 9 10 10 11 11 13 13 10 10 8
8 6 4 5 2 3 2 1 1 1 1 1 2 1 2 4 8 8 9 10 12 13 13 8 7 5 7 7 2 0 5 8 10 11 12 11 15 17 16 14 13 12 10 10 10 10 11 13 11 12 14 15 14 14 14 14 14 14 14 14 14 14 14 15 15 14 14 14 13 13 14 14 13 13 12 12 12 11 10 10 11 10 9 9 9 8 7 8 9 10 11 12 11 10 10 10 10
7 5 4 3 2 3 2 2 2 2 2 1 2 2 3 7 9 10 12 10 9 11 10 8 5 7 5 4 3 3 8 5 11 9 15 12 19 19 17 14 13 12 11 10 10 9 11 13 13 13 13 14 14 14 14 14 14 14 13 13 13 14 13 14 14 15 13 13 12 13 13 14 13 12 12 12 11 11 9 10 10 10 10 9 8 7 7 7 8 10 10 12 12 10 10 10 10
7 5 3 3 4 2 2 2 2 2 1 3 2 1 6 7 9 12 13 12 8 8 5 6 11 11 8 4 7 5 3 5 11 12 12 18 18 18 17 14 13 14 13 10 9 10 13 12 13 13 14 14 14 14 14 14 14 14 14 14 14 13 13 14 15 14 13 13 12 12 13 13 12 12 11 11 11 10 10 10 9 10 9 8 8 7 7 7 9 10 10 11 12 12 11 9 10
5 2 4 3 1 2 2 3 3 2 2 2 1 2 7 9 10 11 13 11 11 10 7 9 7 6 6 2 3 4 3 4 8 15 16 18 19 17 18 14 14 13 12 10 9 9 13 12 13 13 13 13 13 13 14 14 14 14 14 13 14 13 13 13 14 14 12 11 12 12 12 13 13 12 12 11 10 10 9 10 10 10 9 9 8 9 8 7 8 10 10 11 13 12 10 8 10
5 3 2 4 1 0 2 2 2 2 3 3 2 3 8 10 10 11 12 8 10 8 10 10 6 5 5 7 6 4 4 8 13 15 19 19 20 18 13 16 15 13 13 11 10 10 11 13 12 13 13 13 13 13 13 13 13 14 14 14 14 13 13 14 14 13 12 12 10 11 11 12 12 13 11 10 10 9 8 10 10 10 10 9 9 11 8 7 8 9 11 11 13 10 10 12 10
4 3 2 1 2 2 3 1 2 2 1 2 2 7 9 9 10 8 11 11 9 11 7 5 2 6 10 8 6 4 6 11 15 16 18 19 20 18 17 16 16 16 14 11 10 10 9 13 13 13 13 12 12 13 12 13 13 13 13 13 13 13 13 13 14 13 12 11 11 12 11 12 12 12 12 11 11 9 9 9 9 9 9 9 10 10 9 8 8 9 10 11 11 11 10 10 10
4 3 3 3 0 3 2 2 2 1 2 2 4 6 8 9 9 8 9 10 9 8 8 8 8 12 9 6 4 4 10 13 16 19 19 19 18 18 17 15 16 16 14 13 11 10 10 11 14 13 13 12 12 12 12 13 14 13 13 13 13 13 13 12 13 14 12 11 11 11 11 12 12 12 12 12 11 10 10 9 9 9 9 9 10 10 10 9 8 8 9 10 12 10 10 8 7
1 3 2 2 3 2 1 4 4 0 1 4 5 7 6 9 8 10 10 11 8 9 7 9 7 11 9 7 4 8 12 14 15 18 18 18 16 18 16 13 15 15 14 13 11 10 10 10 10 12 13 12 12 12 13 12 13 13 13 13 13 13 12 12 12 12 12 11 11 11 10 11 11 11 11 11 10 10 10 10 10 9 9 10 10 10 11 10 8 8 8 9 11 11 9 7 6
1 1 0 1 1 2 3 5 1 1 3 4 7 6 8 9 8 9 10 8 9 9 7 4 14 5 6 5 6 10 13 15 15 18 18 16 16 15 15 14 15 15 13 12 11 10 11 10 10 10 11 13 11 13 13 13 13 13 12 13 13 12 12 12 12 12 12 11 10 10 10 10 11 11 11 11 10 10 10 10 10 8 10 9 9 11 10 10 9 9 9 9 10 10 10 7 6
3 1 1 2 2 4 4 2 0 2 3 6 4 7 9 7 5 8 9 9 9 6 6 11 11 8 9 7 8 10 12 16 17 18 15 17 15 15 17 15 15 15 13 11 10 10 10 9 9 10 10 10 10 11 13 13 12 12 12 12 12 12 12 11 11 11 11 11 10 10 10 10 10 10 10 10 10 10 9 9 9 11 9 7 10 11 9 11 11 12 8 9 10 9 8 7 6
3 1 1 2 3 3 2 2 2 2 4 7 6 9 8 2 4 8 9 9 6 6 10 7 7 8 5 10 9 13 15 19 19 18 17 16 16 15 16 15 14 14 13 12 10 10 10 9 10 9 9 9 10 8 8 11 12 12 12 12 12 11 11 11 11 11 10 10 9 9 9 9 9 9 9 9 9 9 9 8 9 10 8 7 8 9 11 11 10 10 10 10 11 7 6 4 4
1 2 1 2 3 3 2 4 1 3 4 8 9 9 8 5 4 9 5 4 7 8 11 5 7 1 6 11 11 16 20 20 19 18 17 17 15 14 14 14 13 13 12 11 11 10 9 9 8 8 8 8 8 8 9 9 11 11 11 11 11 11 11 10 10 10 10 9 9 9 9 7 8 8 9 8 10 9 9 8 9 9 7 8 8 8 8 9 10 10 11 11 13 10 8 6 5
1 1 2 3 4 4 1 3 3 2 5 7 10 11 9 8 3 3 3 8 12 10 4 5 7 2 7 7 14 19 20 20 19 20 18 15 14 13 11 11 11 11 9 11 10 9 10 9 9 8 9 9 9 9 8 8 9 11 10 11 11 10 10 10 9 9 9 8 8 8 7 6 6 5 6 7 8 7 8 7 7 9 8 8 8 7 7 8 8 8 8 8 10 8 9 7 7
3 3 3 5 4 4 1 1 1 3 5 9 11 12 10 10 7 7 8 7 9 10 5 7 6 7 8 12 18 20 20 22 21 21 19 16 14 14 13 13 13 12 11 10 10 10 9 9 9 9 8 9 9 7 6 6 8 8 8 8 8 8 9 9 7 6 6 6 7 5 4 4 4 5 6 6 5 6 7 8 7 8 7 6 6 6 6 6 7 7 7 6 7 7 4 3 5
6 4 5 4 4 1 1 2 3 3 2 7 9 10 10 10 12 8 8 9 12 9 7 8 10 11 14 17 20 22 22 21 21 21 21 20 16 17 15 13 13 13 11 9 9 11 9 9 9 9 9 9 9 7 6 7 8 7 7 7 6 7 7 7 6 6 5 5 4 4 4 4 4 4 4 5 5 7 7 8 7 6 6 6 5 5 6 7 6 6 6 5 5 3 2 2 2
7 5 6 7 4 2 4 6 7 5 2 9 10 9 7 9 9 9 7 12 12 11 10 9 12 14 16 19 21 21 21 21 21 20 21 20 18 17 15 16 15 14 13 11 10 9 10 9 10 10 10 9 8 7 6 6 7 6 6 6 5 5 6 5 5 5 4 4 4 3 3 3 3 3 5 5 4 3 4 6 5 5 6 6 5 2 3 5 4 4 5 4 2 2 2 2 3
6 7 7 1 1 4 2 0 3 3 4 7 10 8 7 10 8 10 10 10 11 9 13 16 16 18 19 21 22 21 22 21 21 20 20 19 18 14 14 14 14 13 12 11 10 10 11 10 10 10 10 9 9 7 7 6 6 6 5 5 5 4 5 5 4 4 4 4 3 2 3 3 2 2 2 2 3 3 2 2 2 2 2 3 2 2 2 2 2 2 1 1 1 2 2 3 3
5 11 6 3 1 2 1 3 6 5 0 5 8 11 9 8 7 10 14 9 8 12 13 12 17 19 22 23 22 21 23 22 22 21 21 21 21 18 15 13 13 13 12 11 12 12 13 11 11 10 11 10 9 7 7 6 6 6 5 5 5 5 5 4 4 3 3 3 2 2 2 3 2 2 2 2 2 2 2 2 2 1 2 2 1 2 2 2 1 1 1 2 1 1 2 2 3
6 9 12 10 8 7 2 2 4 8 0 5 9 8 6 12 8 10 14 12 3 3 12 13 18 20 21 22 22 22 23 23 23 22 21 20 19 18 16 13 15 15 13 12 12 11 12 12 11 10 10 10 10 8 7 7 7 6 6 5 5 5 4 4 4 3 3 3 2 2 2 2 2 2 2 2 2 1 2 2 2 1 1 1 2 2 2 1 2 2 2 2 2 2 2 2 2
10 7 4 9 9 13 11 11 7 5 4 5 6 7 10 12 10 11 13 9 3 9 15 16 17 18 21 22 23 24 23 23 23 21 19 19 19 19 17 15 13 13 13 13 12 12 12 14 12 11 9 10 9 9 8 7 6 6 6 6 5 4 4 4 3 2 3 3 2 1 0 1 1 2 2 1 2 1 2 2 2 2 1 1 2 2 2 2 2 2 2 2 2 2 1 1 1
11 11 10 9 6 9 9 9 8 8 7 5 7 10 12 13 7 9 14 8 9 13 16 17 18 18 19 21 21 20 20 20 20 20 17 14 16 15 15 12 14 13 15 14 12 13 13 13 13 12 10 11 10 9 9 7 7 6 6 6 5 5 4 3 3 3 3 2 2 2 1 1 1 1 1 1 1 1 1 2 1 1 2 2 2 2 2 2 2 3 2 2 2 2 1 2 1
14 15 2 3 5 4 4 6 7 7 3 5 8 11 10 12 2 9 9 8 12 16 17 19 19 19 19 20 21 21 21 23 20 20 20 17 17 18 18 15 15 16 14 14 13 13 13 13 14 13 12 11 10 9 8 8 8 7 7 6 5 5 5 4 4 3 2 2 2 2 1 1 1 0 1 1 1 1 2 2 1 1 2 1 2 1 1 1 2 3 2 2 2 2 2 2 2
5 13 13 12 11 11 11 11 11 9 6 6 8 8 10 10 8 7 11 12 15 16 18 18 20 20 19 18 18 19 20 22 22 18 17 17 18 16 16 15 16 15 14 15 14 13 12 14 14 13 12 10 9 9 8 8 8 8 7 6 6 6 5 5 4 3 2 2 2 2 1 1 2 1 0 1 1 1 2 2 2 2 1 1 1 1 1 2 2 3 3 3 3 3 2 2 2
4 1 5 11 12 13 13 12 13 7 6 10 10 9 7 11 10 9 11 14 17 17 18 19 18 19 17 19 18 17 16 17 16 18 21 20 17 16 17 15 16 16 16 15 13 12 13 15 15 14 13 11 10 9 8 8 9 8 8 7 6 5 6 5 4 4 3 2 2 2 1 1 2 1 1 1 2 2 2 2 2 2 2 2 2 2 3 2 3 4 4 4 4 3 2 1 1
7 6 8 5 6 10 10 10 8 5 6 7 8 6 6 10 13 13 12 15 17 17 17 19 18 17 17 18 16 15 16 16 16 16 19 17 16 15 18 17 16 15 12 15 13 14 15 15 13 14 13 12 12 10 8 7 7 8 8 7 6 6 6 5 4 4 3 2 2 2 2 2 2 2 1 2 2 2 2 3 3 3 2 1 1 1 2 3 4 4 4 4 3 3 3 1 1
6 9 9 10 9 10 10 9 9 7 7 6 7 4 6 13 14 9 14 15 16 16 15 16 14 15 15 17 16 16 15 17 18 17 16 16 16 17 17 16 16 14 12 11 14 15 12 11 10 11 13 14 13 9 7 7 7 7 7 7 7 7 5 4 4 3 3 2 2 2 3 3 3 2 2 2 2 2 3 3 3 3 2 2 1 1 1 4 3 5 5 4 4 3 2 1 1
9 7 4 7 5 6 3 3 6 11 7 11 9 6 7 7 13 12 15 18 19 17 16 16 15 15 15 16 15 16 18 17 19 18 18 16 15 14 16 16 16 15 12 13 16 16 15 13 11 11 13 14 13 12 9 8 7 7 6 6 6 7 5 4 4 4 3 3 3 2 3 3 3 3 3 3 3 3 3 3 3 3 2 2 2 1 1 4 3 2 2 2 3 3 2 2 2
5 5 8 6 7 9 4 2 8 9 4 12 11 8 11 7 8 15 16 18 19 17 16 17 16 16 16 15 16 17 17 18 18 19 18 18 16 14 16 17 16 15 14 14 14 14 16 14 14 13 14 15 14 13 11 8 7 7 6 6 5 7 5 5 4 4 3 3 3 3 3 3 3 3 3 3 3 3 3 3 3 3 2 2 1 1 1 4 2 1 2 2 4 3 3 1 1
4 9 4 8 7 11 8 7 9 9 4 11 14 5 1 5 7 14 16 19 19 16 17 17 18 18 17 16 15 15 15 16 17 18 19 17 16 14 15 16 16 17 15 15 15 15 15 16 15 14 15 16 14 14 12 10 7 7 7 6 6 6 5 5 4 4 4 4 4 4 3 3 3 3 3 3 3 4 3 4 3 3 2 2 1 1 1 2 3 2 2 2 3 3 2 2 2
7 7 8 4 10 9 9 1 5 10 9 8 14 11 11 2 6 13 15 19 19 15 17 18 17 16 17 15 15 16 17 17 19 19 20 19 15 17 14 14 16 16 15 15 15 15 16 15 15 14 13 14 13 12 12 11 8 6 6 6 6 6 6 5 5 4 5 4 4 4 4 3 3 4 3 3 3 4 3 3 3 2 2 1 1 0 1 1 1 3 1 3 4 3 2 1 1
9 8 8 6 7 10 8 5 4 7 10 10 12 15 13 6 4 11 16 18 18 17 17 18 18 17 16 15 16 18 18 19 20 19 21 20 18 17 15 15 15 16 13 16 15 13 13 13 12 14 13 13 12 12 11 10 7 6 5 6 6 6 6 6 5 5 5 5 5 5 4 4 4 4 4 4 4 4 3 2 2 1 1 1 1 1 1 1 2 2 2 1 1 1 2 3 1
9 9 9 8 10 10 10 9 0 4 8 10 12 12 12 11 7 9 11 16 18 17 15 13 15 15 15 15 16 16 17 20 17 18 20 18 17 17 16 14 15 15 14 14 15 14 14 13 12 12 13 12 12 12 10 10 8 7 7 6 7 7 6 6 6 6 5 5 5 5 4 4 4 4 4 4 3 3 3 2 2 2 2 2 1 2 1 1 2 1 2 2 2 1 1 1 1
2 6 7 9 11 10 3 4 4 2 3 9 10 12 12 12 11 11 14 14 14 13 14 14 15 15 16 16 17 18 19 20 17 18 19 20 19 17 16 15 15 16 15 16 16 15 15 14 15 16 13 14 13 12 12 10 9 8 7 8 8 7 6 6 6 6 6 5 5 5 4 4 4 4 4 4 4 3 3 2 2 2 2 2 2 2 2 1 3 2 1 1 2 3 1 1 1
4 3 8 9 10 12 8 4 1 4 8 6 8 11 13 13 11 11 11 13 15 16 16 16 16 17 16 19 19 19 16 11 15 15 18 18 17 18 17 15 16 18 16 17 17 17 16 16 15 14 15 14 15 12 11 11 10 9 9 8 7 6 6 6 6 5 6 5 5 5 5 5 4 4 4 4 4 4 3 3 3 3 2 2 2 1 1 1 2 2 2 1 2 2 1 1 1
13 7 4 5 8 6 8 6 6 2 4 8 5 10 12 12 11 10 13 16 16 18 19 19 19 19 17 17 18 16 15 16 17 18 20 19 20 20 17 16 16 18 18 18 17 17 16 16 14 13 13 13 14 14 11 10 10 9 8 7 8 6 5 5 5 5 5 6 5 6 5 5 5 5 5 5 4 5 5 4 3 3 3 2 2 2 2 2 1 2 2 2 0 1 1 1 1
13 11 8 9 1 5 9 5 3 8 8 5 3 10 10 7 5 11 15 16 15 16 18 17 18 21 21 21 20 19 20 18 20 21 22 21 21 20 18 17 17 17 17 17 17 18 15 14 14 14 14 15 14 13 12 11 10 8 7 5 6 6 4 5 5 4 5 6 7 6 6 5 6 6 6 6 5 5 5 5 4 3 3 3 3 3 3 2 2 2 2 2 2 3 2 2 2
14 16 12 9 7 6 4 1 5 2 8 9 7 10 11 8 8 7 11 15 12 11 13 12 11 12 10 10 12 15 19 20 20 21 21 21 22 22 21 20 17 17 18 18 18 17 13 17 16 16 14 15 12 14 15 12 10 8 6 4 4 5 3 5 5 6 7 7 7 7 6 6 6 6 6 6 6 6 6 5 5 4 4 4 3 3 3 3 3 3 3 3 3 3 2 2 2
12 18 17 12 8 7 7 7 8 4 6 7 9 9 12 9 11 13 7 10 13 12 13 16 15 14 13 15 18 17 17 17 19 22 23 23 22 20 21 21 20 19 19 19 18 17 16 15 16 15 13 13 13 14 15 11 12 10 10 10 9 8 7 8 9 9 8 8 9 7 7 7 7 6 6 6 6 6 6 6 6 5 5 5 4 4 3 2 3 4 3 3 3 3 3 2 3
11 13 17 17 12 9 9 9 5 6 9 3 2 11 11 4 9 10 9 12 16 13 15 17 16 14 16 16 15 17 19 18 17 17 17 19 20 20 21 22 22 20 19 18 17 17 17 15 16 16 14 12 12 13 14 12 13 12 12 12 11 10 9 8 7 7 7 6 5 6 5 6 7 7 7 6 6 6 6 6 6 6 5 5 5 5 5 5 4 4 3 3 3 2 2 3 4
13 4 13 14 15 13 12 10 9 8 6 10 8 5 9 9 9 6 8 13 15 15 17 17 15 16 18 18 18 18 18 18 18 20 21 21 22 23 23 22 21 20 18 17 17 16 18 16 16 16 13 13 12 13 15 16 13 13 14 12 10 10 10 8 8 7 5 4 6 7 5 5 6 7 7 6 6 6 6 6 6 6 6 5 5 5 6 5 4 3 3 3 3 3 3 4 3
5 6 9 13 14 13 12 10 9 7 6 9 8 5 6 10 5 4 6 10 11 14 17 16 16 17 19 19 19 19 20 20 20 19 21 21 22 23 21 22 21 20 18 18 17 16 16 16 15 15 15 14 14 15 15 17 13 13 13 11 10 9 9 7 6 7 6 6 7 6 6 6 6 7 7 7 7 7 7 6 7 6 6 6 6 6 6 6 6 5 4 4 4 4 4 3 3
10 6 9 9 10 11 12 10 11 10 9 14 11 8 10 11 8 6 5 9 12 14 16 15 16 18 18 18 19 18 17 16 18 19 19 21 22 22 22 20 20 20 18 17 17 16 16 15 16 17 16 14 14 16 15 16 16 14 13 12 13 10 9 7 7 7 7 7 8 8 7 7 7 6 7 7 6 7 7 7 7 7 7 6 6 6 6 6 5 5 6 5 5 5 4 4 5
6 8 7 9 11 11 8 9 8 7 15 15 15 10 11 12 13 11 9 8 9 9 10 11 13 16 16 16 16 15 16 17 16 18 19 19 19 19 19 21 21 20 17 18 18 17 16 16 17 18 18 14 16 17 17 17 16 14 13 14 15 13 12 10 8 8 8 8 8 8 8 7 6 7 6 6 8 7 7 7 7 7 6 6 6 6 6 6 6 6 6 6 6 6 4 5 5
10 10 9 6 3 3 8 6 6 11 16 10 14 13 13 14 12 10 9 5 8 10 11 13 15 17 17 16 16 18 19 18 18 17 18 19 19 20 19 20 21 21 19 18 18 17 17 16 16 18 17 17 16 16 17 16 16 16 15 15 15 14 13 11 12 11 11 11 10 8 7 6 7 7 7 6 7 8 6 6 7 6 6 6 6 6 6 6 6 5 5 5 5 6 5 5 5
13 11 11 11 6 7 9 8 12 15 14 5 12 11 11 21 15 4 6 10 11 10 9 11 14 16 17 17 18 17 17 17 17 17 17 18 20 20 22 21 20 20 19 20 20 18 17 17 18 19 18 18 16 16 17 17 17 17 16 15 14 12 13 12 12 11 11 10 9 9 8 8 7 7 7 8 7 8 6 6 6 6 6 6 6 6 5 6 5 5 5 6 6 6 5 6 5
15 14 13 13 11 11 10 11 7 8 10 2 1 9 16 8 9 14 18 15 13 10 10 10 12 14 15 16 16 16 16 17 18 18 18 18 19 19 20 21 21 20 21 20 20 19 17 16 19 19 19 18 16 16 17 18 19 18 16 14 14 12 13 13 11 11 11 10 9 10 10 10 9 9 9 9 7 8 7 7 7 7 7 6 7 7 6 6 6 6 6 6 6 6 5 7 7
14 13 14 13 11 10 12 9 13 10 6 7 12 4 8 7 6 7 14 17 18 14 12 12 13 13 13 14 14 17 17 17 17 18 19 20 20 21 20 20 19 19 22 21 19 19 17 17 18 19 18 18 18 18 16 18 17 16 15 14 13 12 12 12 11 11 10 10 10 10 10 9 9 9 9 7 7 7 7 7 7 7 7 7 6 7 6 6 6 6 6 7 6 5 6 6 7
12 13 11 14 16 8 10 3 8 7 7 8 11 12 2 5 4 5 4 8 13 14 16 16 15 12 10 9 12 15 17 18 18 19 20 20 19 20 18 18 19 19 22 21 21 19 18 17 18 20 20 19 18 18 17 17 16 14 15 16 15 14 12 11 10 9 9 10 10 11 10 10 9 8 8 7 8 8 8 7 7 8 7 7 7 7 7 6 6 6 7 7 7 5 6 8 8
11 12 16 15 7 9 10 4 1 2 7 14 4 8 13 5 12 10 7 8 10 11 13 15 16 13 12 12 13 16 17 18 18 19 20 21 19 20 20 21 20 20 20 22 21 19 20 18 18 19 19 18 19 19 18 17 16 15 17 16 15 14 14 14 13 14 14 12 11 10 10 10 9 8 7 7 8 8 8 8 7 7 8 7 7 8 8 7 6 6 7 7 8 7 6 8 8
7 14 14 8 8 11 10 11 5 10 12 5 7 15 12 9 11 12 14 8 10 11 12 14 16 12 14 14 14 15 17 19 21 22 21 22 22 23 22 21 23 23 23 22 20 20 19 18 20 20 19 20 19 19 18 17 17 16 15 16 16 16 15 16 14 14 13 11 10 9 9 8 10 9 8 7 8 9 8 8 8 7 7 8 8 8 8 8 7 6 7 8 7 7 7 7 7
12 10 10 11 11 14 13 7 14 12 14 9 6 8 14 12 11 4 15 19 15 10 10 12 13 12 15 15 16 16 17 16 16 18 16 17 19 19 20 23 25 23 21 21 20 20 19 19 20 22 23 22 20 18 17 15 16 13 13 16 17 16 15 14 13 12 12 12 13 12 12 11 10 9 8 8 8 9 9 8 8 8 7 8 8 8 7 8 8 7 8 7 8 8 8 8 7
14 6 12 13 6 12 12 14 6 4 11 6 9 9 13 10 11 10 8 12 16 17 11 12 13 14 14 14 15 15 15 16 17 18 18 20 22 23 24 24 24 24 23 22 23 21 23 22 21 20 20 19 19 19 17 17 17 15 14 15 15 15 15 14 13 13 13 13 13 13 13 12 11 10 10 10 9 10 10 10 9 10 9 9 8 8 8 8 8 7 8 8 7 8 9 9 7
13 10 11 10 11 2 9 8 13 11 9 10 7 8 10 9 5 10 14 12 11 14 12 10 11 12 15 15 14 14 16 16 17 18 18 21 22 24 24 23 22 21 19 19 21 23 22 20 21 22 22 22 21 20 18 16 15 16 16 17 16 15 16 14 14 14 14 13 13 12 12 12 10 10 10 10 10 10 10 10 10 9 10 9 8 8 7 7 7 8 9 9 8 8 9 9 8
4 4 9 13 14 9 14 15 11 13 10 6 8 12 5 2 5 11 14 13 12 12 13 12 13 13 13 13 14 14 14 16 18 18 19 20 21 22 21 19 17 18 20 23 22 21 22 23 22 22 21 20 21 20 18 17 16 15 17 17 17 16 16 14 15 14 15 13 13 12 12 10 11 11 10 11 11 11 10 10 10 11 10 10 9 9 8 7 8 9 9 8 8 9 10 10 10
Wind_Direction
170 155 146 148 160 157 154 219 231 172 230 246 293 226 84 214 142 141 132 140 132 137 124 126 133 140 153 172 124 79 32 166 8 250 91 117 145 143 151 147 141 140 140 141 142 144 134 126 124 120 119 118 117 117 118 117 118 116 115 113 114 115 114 114 115 116 118 121 126 128 127 124 121 118 115 120 116 108 111 108 111 106 101 108 107 107 106 105 101 98 98 101 96 89 87 87 86
169 141 141 150 166 163 191 187 243 193 192 299 270 257 90 139 177 158 151 150 131 145 137 135 136 95 93 116 118 118 59 42 19 84 89 131 138 143 150 146 147 140 139 139 138 143 130 128 122 123 121 120 119 120 119 118 116 115 114 114 115 113 113 113 114 116 119 120 121 121 120 118 117 118 121 124 116 114 109 107 106 109 112 101 103 104 104 103 100 95 91 95 98 98 100 104 95
155 148 142 157 159 246 38 178 246 58 295 241 90 206 134 162 145 126 136 136 129 134 135 124 107 106 123 128 130 324 115 60 103 113 118 140 136 155 154 147 142 138 137 137 137 139 133 127 125 124 126 123 123 122 120 119 117 118 115 115 114 114 114 114 116 117 117 119 122 118 111 106 113 112 110 107 107 109 104 104 110 107 104 101 90 95 99 98 96 94 88 87 93 91 93 87 81
151 157 161 164 165 256 200 183 258 315 250 312 304 142 205 155 127 128 131 132 136 140 137 138 125 6 161 148 88 87 93 119 131 136 133 155 149 151 153 146 138 137 136 137 139 135 131 130 127 127 128 127 126 122 123 120 118 118 117 116 116 116 117 117 116 116 116 117 115 113 117 118 105 100 102 106 107 109 115 118 115 104 106 112 101 91 88 92 95 93 90 88 93 103 98 98 105
149 154 172 197 225 198 232 218 339 115 242 185 50 70 170 156 134 133 130 134 140 148 155 133 108 67 56 83 77 322 120 107 134 146 142 141 142 148 149 143 142 142 141 139 136 134 132 126 131 131 130 130 125 125 123 120 118 118 117 115 115 117 118 118 115 111 112 111 110 110 103 100 104 108 108 106 110 111 112 111 109 109 111 105 98 89 84 90 93 93 93 86 88 94 100 90 82
137 151 195 280 251 3 266 235 212 234 286 312 300 71 146 144 139 135 133 135 140 156 156 148 129 149 116 39 10 108 129 143 152 147 148 143 147 147 145 144 142 145 140 139 136 135 135 132 134 132 130 129 127 127 123 121 119 117 116 116 117 119 118 114 114 111 110 105 104 106 108 108 111 110 109 113 112 113 114 111 103 107 105 104 102 100 93 99 97 94 90 93 91 84 81 82 78
152 141 186 260 265 228 294 282 260 269 31 220 251 174 156 147 137 138 140 135 137 138 157 136 114 115 105 112 89 83 52 101 153 151 153 144 143 145 145 144 142 144 141 138 136 136 134 136 136 133 133 129 129 127 125 123 121 123 122 123 120 117 115 114 109 107 106 108 109 107 109 109 107 107 111 110 110 109 113 106 108 97 101 109 109 108 103 101 102 98 96 99 94 84 65 65 69
173 185 173 223 236 206 284 316 286 235 102 232 67 165 150 147 146 147 147 152 154 157 153 134 146 91 84 164 133 81 70 140 127 142 140 144 145 144 147 144 144 144 141 139 138 136 136 141 137 137 132 130 130 127 126 125 125 125 121 121 118 117 116 112 109 106 108 113 113 115 111 109 115 112 105 104 104 107 106 102 97 102 103 101 107 105 96 94 99 98 99 100 101 100 109 92 72
172 264 143 249 289 218 275 292 316 235 267 242 134 117 136 148 155 148 152 153 143 142 147 158 162 170 125 120 94 112 92 122 122 134 143 144 147 146 146 149 146 146 144 142 140 142 141 140 139 137 133 134 131 129 128 126 125 124 124 123 118 120 114 112 111 113 113 112 111 107 106 105 102 105 108 104 100 100 98 99 101 107 109 115 112 101 101 104 98 97 99 99 104 106 96 85 81
176 253 181 324 23 308 321 207 242 90 252 73 120 145 148 154 155 165 149 152 150 139 129 120 115 116 132 110 114 144 131 137 130 138 145 146 147 148 149 149 147 146 144 144 144 144 143 143 141 139 136 135 133 131 129 125 124 123 120 118 118 117 117 118 116 115 120 119 116 114 114 110 107 104 103 104 107 107 106 106 101 99 103 103 98 103 107 100 93 96 96 97 99 97 88 83 82
189 194 269 273 299 308 282 13 306 222 147 140 131 148 158 157 156 157 155 137 143 136 132 134 106 128 139 112 76 87 137 140 143 147 149 149 150 150 148 149 149 148 146 146 147 144 145 146 141 139 138 137 135 130 127 128 126 122 121 121 119 116 117 116 118 117 116 114 114 111 106 105 104 102 102 102 99 100 103 104 104 104 100 101 104 103 99 93 91 96 99 98 98 98 85 76 80
277 191 176 280 273 285 322 316 325 17 131 155 142 160 172 161 157 154 147 142 145 136 150 179 143 137 122 129 127 141 143 149 147 148 148 149 151 150 148 149 150 148 146 147 148 148 149 147 147 142 141 139 137 128 128 130 124 123 123 122 119 117 116 116 113 113 116 114 110 106 106 104 102 99 96 94 95 94 92 95 90 90 90 90 89 95 102 100 90 86 92 97 102 102 90 78 76
240 264 245 282 272 246 317 287 14 97 139 172 154 167 168 167 172 157 153 133 150 149 158 166 135 162 128 137 126 139 151 151 147 150 149 151 151 151 151 149 151 148 148 148 150 151 151 152 148 148 143 141 139 133 132 128 126 126 125 122 120 119 119 118 118 119 119 117 110 109 106 102 100 98 97 95 93 90 86 89 95 81 80 87 92 96 91 93 93 77 73 78 80 91 108 99 86
232 321 9 276 278 282 282 293 2 186 150 135 148 147 171 172 163 155 142 146 161 170 124 139 145 117 101 113 145 154 153 152 149 151 151 151 152 152 152 150 151 149 150 152 154 153 155 156 151 148 146 149 143 139 131 128 128 131 127 123 123 121 121 120 120 119 117 114 112 109 106 103 100 100 98 96 92 88 86 85 83 85 82 73 84 83 87 92 100 103 96 89 89 84 79 91 101
240 318 266 288 284 293 219 235 125 184 120 161 150 156 163 93 135 153 166 146 138 100 117 138 146 167 174 169 168 168 158 154 152 151 150 149 153 152 151 152 152 151 153 155 157 157 157 158 154 150 151 150 148 144 137 134 137 133 129 128 126 126 124 122 119 118 117 115 112 111 110 106 104 101 98 95 89 84 83 83 85 83 75 84 78 88 100 107 105 101 103 99 92 90 106 121 101
263 251 294 282 278 283 154 228 207 189 128 173 154 154 147 117 160 163 162 143 116 130 148 149 191 262 137 185 165 158 152 152 153 151 150 149 148 148 150 152 154 155 155 160 160 160 159 160 157 155 152 152 153 147 140 139 139 136 133 132 130 130 129 123 122 122 120 115 109 102 94 97 95 95 95 95 87 82 69 66 77 90 96 88 80 82 84 88 96 103 111 121 129 143 137 125 98
214 277 250 231 259 226 124 216 183 70 107 158 154 165 160 152 122 75 112 127 135 152 160 138 171 316 176 163 144 147 149 151 151 151 151 149 152 153 153 154 157 157 159 163 163 162 161 162 162 157 156 156 153 147 144 141 142 142 139 136 136 134 131 127 123 124 122 118 118 108 113 100 97 99 99 93 91 79 77 77 75 79 76 74 77 77 77 75 81 86 85 95 106 119 120 120 100
187 207 229 238 246 243 247 257 154 4 176 162 174 178 159 148 155 133 142 145 133 145 123 110 78 89 117 122 136 144 149 153 155 155 158 155 159 159 160 162 162 164 166 165 167 167 162 163 168 161 159 159 156 150 148 148 147 151 145 145 142 140 137 133 131 124 122 119 112 118 108 98 93 88 81 77 78 89 85 72 72 81 80 76 70 71 59 76 74 71 74 72 89 103 116 138 122
189 208 222 253 198 156 270 29 354 323 51 171 178 181 180 159 153 157 161 152 146 143 125 126 102 104 114 134 142 150 154 157 160 162 161 162 164 163 165 164 167 164 167 167 166 171 164 164 169 167 166 162 158 153 154 154 151 151 151 148 141 142 136 134 129 125 123 118 113 107 105 98 89 80 75 65 73 70 67 60 68 74 93 92 75 62 51 60 57 48 65 56 57 76 110 97 111
210 225 226 237 223 262 268 290 292 278 252 171 182 184 200 149 162 159 179 160 167 168 145 145 138 139 141 145 148 152 159 161 164 164 165 165 167 166 164 166 169 169 167 170 167 173 167 168 170 170 171 167 164 160 163 159 153 153 153 151 146 144 139 135 131 129 127 123 119 113 105 97 98 87 68 71 77 83 92 84 73 76 78 76 75 94 77 64 46 59 58 47 17 37 42 60 48
178 216 227 248 264 248 101 284 316 295 246 193 181 167 183 167 163 170 157 155 192 196 175 165 160 152 151 155 155 157 163 165 168 168 167 167 168 168 168 169 170 168 168 166 168 174 170 169 170 172 171 173 171 167 167 166 157 158 155 153 148 147 144 144 142 141 134 129 126 125 108 96 99 87 76 77 66 74 65 78 114 81 79 87 50 63 37 50 20 40 62 79 44 23 33 36 35
179 227 241 236 148 234 256 6 74 53 145 180 168 171 190 157 170 187 168 181 194 205 185 167 151 151 154 159 160 162 165 169 171 171 171 170 170 170 168 168 167 168 167 172 173 173 176 171 173 172 173 176 177 173 172 163 165 166 161 159 157 156 154 153 155 153 147 148 141 118 107 114 112 107 99 83 88 63 74 67 62 63 80 66 34 35 43 12 12 49 35 29 37 43 35 34 44
232 231 245 245 254 281 284 252 329 330 331 163 182 186 138 174 189 194 190 204 94 154 160 152 149 155 157 157 160 167 170 173 175 176 172 171 171 173 170 168 169 171 173 175 174 174 175 175 174 172 176 177 180 177 173 172 174 169 168 168 167 163 162 166 169 159 150 148 147 132 168 131 129 130 117 102 84 40 50 50 48 49 51 51 32 13 29 29 5 16 26 26 32 29 50 68 75
241 254 228 242 238 249 263 279 308 309 234 234 197 160 185 185 202 193 208 206 108 136 144 142 146 151 153 159 168 171 174 175 178 178 176 174 173 173 172 170 169 172 175 174 175 176 176 178 175 174 175 181 181 181 179 179 175 174 173 169 182 161 174 178 173 166 151 166 167 151 234 149 142 139 115 107 69 30 29 30 26 14 35 44 32 359 10 21 22 37 41 21 31 20 5 60 73
223 249 246 257 264 261 271 277 279 283 268 250 178 188 203 194 201 173 212 191 137 135 137 142 145 152 161 163 168 171 174 177 176 177 178 176 176 172 172 171 172 172 178 176 176 178 179 179 178 178 175 183 182 183 186 182 180 182 179 182 183 177 192 189 180 177 186 180 165 187 214 185 170 141 118 90 42 26 9 9 7 11 6 7 5 14 2 359 9 40 35 33 16 20 333 57 51
222 234 249 247 247 269 277 289 286 281 293 187 190 212 206 196 177 215 201 176 140 137 141 146 149 155 164 170 170 172 176 179 177 178 179 176 176 175 179 178 177 180 179 175 177 180 178 179 182 182 180 182 182 185 187 186 185 187 188 189 182 188 195 193 190 200 200 195 183 186 207 249 234 159 123 63 6 10 346 343 336 344 345 355 352 3 13 348 12 51 28 36 36 8 13 47 16
197 237 247 264 267 282 277 274 278 280 270 198 221 215 207 189 194 223 182 157 141 144 147 153 156 163 167 170 174 176 175 178 180 175 176 180 181 180 180 180 182 180 175 179 180 181 178 181 185 185 184 179 183 188 187 188 188 192 190 191 189 194 191 196 200 210 210 211 197 166 216 245 269 235 303 335 331 332 324 325 326 326 309 14 359 353 31 359 26 42 28 26 23 10 12 19 3
281 324 255 253 262 262 265 263 264 266 267 210 224 247 205 188 201 230 160 154 152 149 154 160 165 166 169 171 173 176 180 178 175 177 180 181 184 184 182 184 183 181 182 181 181 179 180 185 186 186 185 185 186 191 182 187 190 192 193 195 195 194 193 200 204 209 217 219 207 194 218 247 267 284 285 294 301 315 318 321 319 312 332 353 357 3 5 8 34 47 37 25 5 353 7 344 336
253 284 287 276 283 278 252 246 251 204 252 202 213 248 204 176 219 210 153 155 160 155 160 165 169 169 170 171 173 176 178 176 179 184 187 186 183 184 185 186 183 181 183 180 176 178 184 185 186 188 189 189 194 192 184 183 181 190 195 198 198 197 198 201 207 210 213 214 202 209 225 239 253 267 271 278 296 300 312 311 303 309 316 338 344 20 9 33 30 44 38 354 356 342 339 5 304
247 256 265 291 284 274 261 224 233 214 234 181 155 245 224 211 216 183 153 162 161 157 165 169 169 170 171 173 176 178 180 180 185 187 186 186 186 186 186 185 185 182 178 178 177 184 183 185 186 188 192 194 198 196 190 183 180 185 190 197 201 203 204 202 206 208 210 213 213 204 221 228 247 259 267 272 282 292 294 295 297 302 318 330 329 3 36 64 42 36 26 345 335 322 342 2 346
215 228 229 256 279 247 125 192 178 212 183 171 176 246 261 226 204 174 163 164 166 172 172 173 171 172 174 177 176 179 184 187 189 188 189 187 186 187 186 183 185 181 178 177 181 183 183 184 185 190 192 196 196 201 196 191 182 184 183 193 200 206 206 210 208 203 207 219 217 214 216 228 237 248 258 269 271 281 285 284 287 293 321 323 315 6 33 101 91 26 8 324 324 316 343 343 323
202 178 225 218 230 261 238 151 182 208 148 185 184 245 257 251 194 168 167 172 172 176 175 176 175 176 176 178 179 181 187 190 192 191 190 188 186 185 187 188 186 185 182 179 181 183 186 188 188 192 191 196 197 201 201 196 189 187 186 185 192 199 209 212 214 216 215 213 225 229 217 225 233 238 248 248 262 267 278 285 290 300 309 296 312 354 350 84 50 48 11 343 330 331 349 327 342
203 221 187 205 200 241 270 214 206 222 137 186 191 241 261 252 183 166 171 174 179 177 177 179 179 178 177 179 181 182 184 190 194 195 193 190 191 190 187 187 187 188 185 180 180 181 185 188 192 195 193 195 197 200 203 200 190 186 191 190 195 192 209 213 218 222 221 221 223 230 215 216 229 230 235 239 254 261 266 276 287 300 301 293 303 308 328 104 132 57 30 325 275 294 309 326 324
209 203 222 187 201 222 238 346 224 212 204 193 205 237 246 0 151 165 174 178 181 181 179 181 180 180 180 179 181 182 186 187 193 194 194 191 190 191 190 189 188 188 188 186 184 182 185 188 192 197 195 195 196 198 200 202 196 185 190 197 195 201 211 218 217 217 225 225 221 228 218 217 224 227 229 234 249 262 270 277 288 289 277 266 273 282 331 24 86 112 175 210 239 286 307 302 294
204 182 207 203 232 240 242 213 110 195 207 221 205 228 243 227 148 176 180 183 183 187 182 182 182 181 180 183 184 186 188 190 195 192 190 190 190 190 191 190 190 188 189 189 187 186 186 188 191 195 196 194 194 200 199 202 188 184 193 198 201 205 211 216 216 218 224 224 228 225 217 220 224 222 225 222 239 253 252 257 263 235 239 246 238 238 226 224 85 29 339 348 280 336 324 328 342
221 198 205 209 210 215 224 229 251 217 191 216 215 226 235 229 204 186 186 188 190 194 185 180 182 182 183 185 188 189 191 195 192 190 190 189 189 187 190 188 189 188 189 187 187 187 187 188 191 195 199 194 194 197 196 200 197 193 198 198 207 211 212 210 213 223 225 229 226 223 218 222 223 224 225 224 231 241 250 245 226 207 216 225 236 270 274 242 128 291 298 337 324 326 25 354 140
342 218 225 224 228 236 209 227 248 232 245 225 227 237 243 237 220 197 192 191 200 193 183 184 184 184 187 190 192 194 194 195 187 187 188 189 188 187 188 188 189 189 188 187 186 188 188 189 192 197 193 196 196 196 198 197 196 197 203 205 207 205 207 208 214 219 225 230 232 229 222 226 223 224 229 223 223 220 235 233 214 217 213 220 245 268 289 10 118 136 256 314 354 303 354 62 106
269 248 221 228 224 239 228 230 207 217 241 238 234 245 246 243 228 208 190 189 199 199 192 190 187 188 190 192 194 196 193 185 183 186 191 191 191 189 187 189 189 189 191 187 188 190 191 193 196 195 198 196 200 194 192 193 195 197 192 197 202 203 198 204 211 215 223 227 223 226 232 233 225 223 225 219 221 218 214 216 214 217 206 221 240 267 219 142 148 155 180 168 220 276 357 324 95
235 245 233 245 231 261 285 263 260 275 225 252 226 244 251 247 232 203 193 195 206 203 197 193 188 190 193 195 195 188 181 186 187 190 188 191 192 190 189 191 192 193 192 192 190 191 192 193 196 193 194 194 201 198 191 192 193 193 190 187 194 199 205 208 214 210 212 226 224 222 226 227 225 228 223 217 218 213 217 213 215 205 214 209 215 219 211 214 218 215 212 264 270 182 84 112 147
228 227 230 221 150 195 229 209 180 230 232 264 215 252 259 263 237 212 201 203 209 205 207 202 192 189 192 192 189 187 186 183 187 188 189 192 193 194 194 193 192 192 194 198 190 191 192 193 196 194 195 199 201 198 196 194 188 184 182 182 184 200 198 193 200 207 215 226 230 221 218 221 222 229 221 216 215 211 208 212 208 201 202 207 218 225 221 225 225 224 226 224 233 259 211 152 170
221 230 231 229 220 226 291 44 336 303 246 251 272 274 267 246 239 213 212 211 213 206 208 213 212 214 205 194 193 193 190 187 187 188 190 191 193 196 196 197 192 193 194 198 193 191 191 193 193 191 194 196 193 195 200 195 193 184 179 175 175 189 200 193 199 212 211 214 223 219 218 213 219 226 222 215 219 211 205 204 206 205 201 199 212 225 227 235 223 241 234 236 240 288 281 172 165
223 225 228 231 233 247 256 283 326 282 241 194 209 259 255 235 238 242 194 194 215 207 202 209 207 197 190 196 199 196 198 195 190 189 189 190 192 192 197 197 196 195 197 199 195 191 192 193 192 191 194 194 195 192 194 187 198 191 190 199 195 193 199 195 202 204 202 206 216 218 210 211 217 221 221 220 217 211 202 201 202 211 216 210 214 236 241 213 212 229 221 243 244 240 294 236 197
224 226 211 225 236 240 251 270 272 248 241 93 228 237 255 175 227 228 186 193 211 203 211 214 205 198 199 202 197 197 196 193 196 196 192 190 190 192 193 195 196 195 195 192 191 191 191 191 190 189 192 194 193 190 185 192 197 197 196 197 194 192 195 205 204 205 207 204 204 205 204 205 210 220 224 217 215 210 203 197 200 208 220 223 223 229 227 229 229 215 206 224 244 240 221 247 238
233 187 182 207 224 229 240 250 252 266 314 295 266 248 263 262 234 216 197 204 208 204 213 216 204 199 205 205 203 201 197 196 191 193 192 192 190 192 194 194 194 196 191 189 189 190 190 188 185 188 192 193 191 189 185 197 193 196 201 199 201 202 201 200 193 198 199 197 201 214 214 212 207 216 221 211 213 209 203 197 196 204 209 220 213 221 229 230 227 211 202 219 223 227 234 248 248
233 174 165 192 213 226 233 243 253 256 296 270 240 193 253 249 231 90 190 212 215 212 216 214 206 207 207 204 204 201 199 196 193 192 193 192 193 194 193 194 195 192 192 191 189 188 187 186 185 188 192 190 194 189 184 194 191 193 196 194 199 204 205 203 186 190 196 194 206 207 211 213 210 212 216 216 210 211 205 200 194 197 202 208 209 222 225 222 221 219 207 209 218 219 231 237 241
215 146 168 203 204 216 224 234 242 252 245 248 241 206 251 259 238 208 182 226 213 212 218 215 207 210 208 207 207 204 198 196 199 196 194 194 195 195 195 192 190 193 192 190 188 187 186 185 187 188 193 194 194 188 186 191 192 193 197 196 199 199 197 197 190 187 191 189 203 205 205 211 215 213 213 215 212 211 211 204 200 201 205 206 207 221 217 214 213 217 219 225 228 235 229 231 234
108 163 174 182 198 211 211 228 235 253 245 240 241 216 225 267 241 218 193 214 210 206 211 213 214 217 215 212 207 201 198 197 197 196 198 197 196 196 192 191 192 192 192 188 186 187 187 187 187 189 193 190 196 192 190 193 193 194 197 196 199 199 195 190 186 191 190 192 204 206 205 209 210 213 213 209 215 214 213 210 211 206 207 200 201 210 214 217 215 217 220 223 233 241 236 230 230
179 190 192 158 169 172 199 201 186 235 249 232 225 223 207 244 241 225 206 213 211 204 206 203 208 212 211 208 204 201 198 194 192 193 195 192 192 194 192 195 193 192 190 188 187 187 187 187 187 189 190 189 194 191 190 193 195 199 200 195 198 200 195 193 194 196 193 196 202 205 203 204 207 210 212 215 212 214 211 212 213 211 202 201 203 208 216 218 223 216 218 221 228 233 241 240 238
203 198 195 200 187 179 206 188 210 220 243 230 207 199 230 234 247 262 189 214 233 216 219 209 206 212 211 209 205 203 201 195 189 191 190 191 192 190 191 191 188 188 190 188 188 188 187 186 185 186 190 189 189 189 191 193 196 200 202 197 197 197 196 196 197 198 192 194 197 201 196 206 205 207 210 215 214 208 206 210 209 208 204 204 207 205 206 208 214 217 217 223 226 229 231 234 237
201 203 192 196 201 197 215 207 228 244 231 135 147 189 244 273 277 227 246 244 239 230 220 224 213 210 207 206 203 201 198 194 193 191 191 194 192 190 190 190 187 186 188 188 188 189 186 186 184 188 190 187 187 190 191 193 199 200 198 195 195 193 196 197 200 202 198 196 193 199 203 206 206 210 212 212 214 207 210 212 210 212 209 203 200 202 204 205 206 220 222 224 224 224 233 236 242
202 203 202 207 207 202 212 208 210 224 268 204 162 177 233 183 227 164 212 230 241 231 220 223 224 218 208 205 197 197 197 197 192 191 193 195 193 189 190 190 189 188 189 189 188 188 184 184 183 187 188 186 187 189 191 195 197 195 195 196 195 195 197 199 202 204 201 196 198 201 202 205 209 211 211 209 201 203 208 210 211 215 210 206 202 202 202 203 204 218 234 234 236 229 234 237 240
202 198 207 214 214 194 231 198 224 244 243 233 185 217 89 224 358 307 265 242 231 223 216 215 219 214 203 191 195 198 199 197 192 193 195 195 190 188 188 188 189 190 189 190 188 185 182 182 182 185 188 185 187 189 191 193 195 194 194 194 196 195 196 199 200 198 200 197 197 199 200 202 208 208 207 203 203 206 210 211 210 214 211 207 206 206 205 206 201 214 230 232 234 226 232 233 239
183 190 207 212 191 204 227 248 214 351 239 248 169 235 247 314 283 254 229 218 232 229 225 220 224 210 185 196 200 200 199 198 196 197 197 193 188 186 190 191 190 189 190 191 187 183 182 182 182 186 188 186 188 190 191 192 193 191 196 194 195 195 196 199 202 203 207 203 201 202 204 206 204 206 207 205 208 205 210 212 214 215 208 208 208 206 207 208 204 209 228 231 234 228 225 237 239
133 208 208 152 186 223 221 234 181 222 234 219 171 228 242 204 258 207 220 215 227 219 218 220 226 199 189 204 202 200 198 197 197 197 194 188 186 188 191 193 192 192 190 188 184 180 180 182 183 185 186 188 189 189 192 192 190 190 190 194 196 198 200 203 205 204 201 199 196 199 205 200 205 206 206 206 203 206 209 208 216 215 213 209 210 209 207 207 208 219 229 233 235 232 230 235 238
228 228 152 178 185 204 206 233 228 218 228 241 207 224 245 223 224 146 210 220 227 218 217 224 218 198 205 207 206 202 198 198 197 197 188 185 190 189 190 193 194 192 188 189 182 181 183 185 186 188 190 190 188 190 191 192 191 190 192 193 195 197 200 202 203 200 194 198 202 199 204 207 204 199 196 198 202 211 210 210 214 219 214 213 208 210 206 212 216 225 232 235 232 229 232 237 237
236 197 183 206 225 208 196 208 249 245 246 229 227 201 245 217 238 235 230 211 223 227 210 221 221 198 205 208 207 198 194 197 198 197 194 191 190 190 191 193 191 189 186 186 184 187 190 187 184 188 190 188 187 190 189 191 192 192 191 191 194 195 197 198 198 194 195 200 202 203 202 204 201 200 202 201 207 212 212 214 215 220 222 220 214 211 209 209 209 223 233 237 231 229 232 234 236
196 211 221 188 216 50 224 204 213 211 230 234 231 232 238 235 189 234 237 224 221 224 217 209 212 204 208 206 200 195 193 198 200 197 196 193 193 194 194 191 192 190 184 182 185 189 190 188 189 187 187 187 188 189 189 190 189 192 190 189 190 192 196 197 199 198 201 204 203 203 202 206 198 202 200 202 206 210 211 213 219 219 220 218 214 211 205 205 205 221 232 236 239 234 236 239 235
343 283 230 208 202 192 202 222 209 225 227 225 214 242 261 221 167 215 226 229 222 218 221 217 218 212 205 208 204 193 192 198 197 197 196 194 194 194 193 189 186 185 185 185 189 187 187 189 188 186 188 188 188 188 190 188 189 191 192 191 193 193 195 197 200 201 203 202 202 200 200 197 201 201 200 206 207 210 210 212 216 217 216 217 214 210 209 204 208 213 223 229 233 234 238 244 245